Burlington, CO

2:16 AM MDT on April 21, 2018 (GMT -0600)
Kit Carson County

Weather History for KITR - October, 2011

Change the Weather History Date:

Tuesday, October 25, 2011

  Actual Average Record
Temperature  
Mean Temperature 52 °F 47 °F  
Max Temperature 63 °F 62 °F 84 °F (1922)
Min Temperature 40 °F 33 °F 17 °F (1997)
Degree Days  
Heating Degree Days 12    
Growing Degree Days 4 (Base 50)    
Moisture  
Dew Point 31 °F    
Average Humidity 45    
Maximum Humidity 76    
Minimum Humidity 34    
Precipitation  
Precipitation 0.00 in 0.03 in 1.20 in (1918)
Month to date precipitation 0.56 1.01  
Year to date precipitation 15.66 16.30  
Sea Level Pressure  
Sea Level Pressure 29.92 in    
Wind  
Wind Speed 13 mph (North)    
Max Wind Speed 22 mph    
Max Gust Speed 28 mph    
Visibility 10 miles    
Events      
T = Trace of Precipitation, MM = Missing Value Source: NWS Daily Summary

Daily Weather History Graph

Daily Weather History Graph

Search for Another Location

Airport or City:

Astronomy

Oct. 25, 2011 Rise Set
Actual Time 7:09 AM MDT 5:56 PM MDT
Civil Twilight 6:41 AM MDT 6:24 PM MDT
Nautical Twilight 6:10 AM MDT 6:55 PM MDT
Astronomical Twilight 5:39 AM MDT 7:26 PM MDT
Moon 5:44 AM MDT (10/25) 4:59 PM MDT (10/25)
Length of Visible Light 11h 42m
Length of Day
10h 47m
Waning Crescent, 2% of the Moon is Illuminated
Oct 25
Waning Crescent
Oct 26
New
Nov 2
First Quarter
Nov 10
Full
Nov 18
Last Quarter

Hourly Weather History & Observations

Time (MDT) Temp. Windchill Dew Point Humidity Pressure Visibility Wind Dir Wind Speed Gust Speed Precip Events Conditions
1:53 AM 50.0 °F - 23.0 °F 35% 29.69 in 10.0 mi West 11.5 mph - N/A   Clear
2:53 AM 50.0 °F - 24.1 °F 36% 29.68 in 10.0 mi WNW 10.4 mph - N/A   Clear
3:53 AM 48.9 °F - 23.0 °F 36% 29.71 in 10.0 mi SW 12.7 mph - N/A   Clear
4:53 AM 48.0 °F - 21.9 °F 36% 29.73 in 10.0 mi West 8.1 mph - N/A   Clear
6:53 AM 48.9 °F - 21.9 °F 35% 29.86 in 10.0 mi NW 11.5 mph - N/A   Clear
7:53 AM 46.9 °F - 25.0 °F 42% 29.91 in 10.0 mi NW 8.1 mph - N/A   Clear
8:53 AM 50.0 °F - 33.1 °F 52% 29.94 in 10.0 mi North 15.0 mph 21.9 mph N/A   Clear
9:53 AM 54.0 °F - 35.1 °F 49% 29.94 in 10.0 mi NNW 18.4 mph 26.5 mph N/A   Clear
10:53 AM 57.0 °F - 35.1 °F 44% 29.94 in - North 17.3 mph 24.2 mph N/A   Clear
11:53 AM 60.1 °F - 34.0 °F 38% 29.92 in 10.0 mi North 13.8 mph - N/A   Clear
12:53 PM 62.1 °F - 33.1 °F 34% 29.91 in 10.0 mi North 17.3 mph 26.5 mph N/A   Clear
1:53 PM 60.1 °F - 32.0 °F 35% 29.93 in 10.0 mi North 15.0 mph 27.6 mph N/A   Clear
2:53 PM 59.0 °F - 32.0 °F 36% 29.91 in 10.0 mi North 21.9 mph - N/A   Clear
3:53 PM 57.0 °F - 33.1 °F 40% 29.92 in 10.0 mi NNE 18.4 mph 25.3 mph N/A   Clear
4:53 PM 55.9 °F - 34.0 °F 44% 29.94 in 10.0 mi NNE 18.4 mph 21.9 mph N/A   Clear
5:53 PM 53.1 °F - 34.0 °F 48% 29.99 in 10.0 mi NNE 5.8 mph - N/A   Mostly Cloudy
6:53 PM 51.1 °F - 34.0 °F 52% 30.02 in 10.0 mi North 10.4 mph - N/A   Mostly Cloudy
7:53 PM 51.1 °F - 32.0 °F 48% 30.04 in 10.0 mi North 11.5 mph - N/A   Mostly Cloudy
8:53 PM 48.0 °F - 33.1 °F 56% 30.04 in 10.0 mi NE 16.1 mph 26.5 mph N/A   Partly Cloudy
9:53 PM 46.9 °F - 33.1 °F 59% 30.04 in 10.0 mi NNE 19.6 mph 27.6 mph N/A   Overcast
10:53 PM 45.0 °F 36.9 °F 32.0 °F 60% 30.07 in 10.0 mi NNE 20.7 mph - N/A   Overcast
11:53 PM 42.1 °F 34.2 °F 35.1 °F 76% 30.09 in 10.0 mi NNE 16.1 mph - N/A   Overcast